Regional Weather Roundup
Issued by NWS

Home | Current Version | Previous Version | Graphics & Text | Print | Product List | Glossary On
Versions: 1 2 3 4 5 6 7 8 9 10 11 12 13 14 15 16 17 18 19 20 21 22 23 24 25 26 27 28 29 30 31 32 33 34 35 36 37 38 39 40 41 42 43 44 45 46 47 48 49 50
000
ASUS45 KBOU 230307
RWRCO

WEATHER ROUNDUP FOR COLORADO
NATIONAL WEATHER SERVICE DENVER/BOULDER CO
900 PM MDT THU JUN 22 2017

NOTE: "FAIR" INDICATES FEW OR NO CLOUDS BELOW 12000 FEET WITH NO
SIGNIFICANT WEATHER AND/OR OBSTRUCTIONS TO VISIBILITY.

COZ001>005-013-030-031-230400-
...NORTHWEST COLORADO...

CITY           SKY/WX    TMP DP  RH WIND       PRES   REMARKS
CRAIG          FAIR      74  24  15 NW7       30.04R
HAYDEN         FAIR      73  25  16 NW12G17   30.06R
MEEKER         FAIR      65  51  60 MISG      30.06R
RABBIT EARS PA FAIR      54  36  50 W7        30.37R
STEAMBOAT SPGS FAIR      68  42  38 E5        30.08R
WALDEN         NOT AVBL
$$

COZ006>008-011-230400-
...WEST CENTRAL VALLEYS...

CITY           SKY/WX    TMP DP  RH WIND       PRES   REMARKS
GRAND JUNCTION FAIR      86  33  15 CALM      29.86R
MONTROSE       FAIR      80  40  23 S6        29.97R
EAGLE          FAIR      72  41  32 NE3       30.10R
RIFLE          FAIR      79  38  22 E7        29.95R
DELTA          FAIR      85  32  14 N7        29.91R
NUCLA          NOT AVBL
$$

COZ017>023-064>068-230400-
...SOUTHWEST COLORADO...

CITY           SKY/WX    TMP DP  RH WIND       PRES   REMARKS
DURANGO        FAIR      79  17  10 W6        30.02R
CORTEZ         FAIR      82  26  13 N3        29.97R
PAGOSA SPRINGS FAIR      72  12   9 CALM      30.11S
TELLURIDE      FAIR      71  26  18 CALM      30.29R
WOLF CREEK PAS FAIR      57  18  21 W5        30.55R
$$

COZ009-010-012-014-032>034-037-058>063-230400-
...CENTRAL COLORADO...

CITY           SKY/WX    TMP DP  RH WIND       PRES   REMARKS
ASPEN          FAIR      68  37  32 SE7       30.14S
BUENA VISTA    FAIR      70  29  21 W8        30.17R
COPPER MTN     MOCLDY    52  34  50 NW15G26   30.51S
BERTHOUD PASS  CLOUDY    37  27  65 W37G49    30.47F
COTTONWOOD PAS FAIR      70  19  14 W13       30.33S
GUNNISON       FAIR      71  35  26 VRB3      30.15R
KREMMLING      NOT AVBL
LEADVILLE      FAIR      58  29  33 N8        30.32S
SALIDA         FAIR      76  38  25 E8        30.20R
SUNLIGHT       FAIR      54  30  40 W5        30.42R
WILKERSON PASS FAIR      52  32  46 N9        30.47R
$$

COZ069>075-230400-
...SAN LUIS VALLEY/SANGRE DE CRISTO MOUNTAINS...

CITY           SKY/WX    TMP DP  RH WIND       PRES   REMARKS
ALAMOSA        FAIR      72  39  30 VRB3      30.08R
DEL NORTE      FAIR      78  22  12 NW13G18   30.13R
LA VETA PASS   CLOUDY    55  39  54 NE28      30.49S
SAGUACHE       FAIR      77  27  15 N10       30.14R
$$

COZ035-036-038>040-230400-
...NORTHERN COLORADO FRONT RANGE...

CITY           SKY/WX    TMP DP  RH WIND       PRES   REMARKS
DENVER INTL AP MOCLDY    69  53  56 E5        30.00R
DMNS CITY PARK   N/A     72  49  44 E5        29.99F
AURORA         MOCLDY    70  52  51 SE8       30.01S
FRONT RANGE AP FAIR      70  54  56 E12       30.00F
ERIE MUNI ARPT FAIR      70  47  43 NE8       29.98F
BOULDER MUN AP FAIR      70  50  49 NE8       29.98S
CENTENNIAL     CLOUDY    72  48  42 W3        30.03R
BROOMFIELD     FAIR      72  45  37 NE14      30.01F
FORT COLLINS   FAIR      69  52  54 S7        29.99S
LONGMONT       FAIR      69  58  68 CALM      29.98F
$$

COZ041-046-047-076>085-087-088-230400-
...PIKES PEAK/PALMER DIVIDE AND SOUTHERN FOOTHILLS...

CITY           SKY/WX    TMP DP  RH WIND       PRES   REMARKS
COLO. SPRINGS  MOCLDY    74  49  41 CALM      30.06R
A. F. ACADEMY  MOCLDY    66  49  54 N6        30.08R
SCHRIEVER AFB  NOT AVBL
CHEYENNE MTN   NOT AVBL
ELLICOTT       FAIR     N/A N/A N/A E10       30.04R
FALCON           N/A     69  46  43 N5        30.12R
FORT CARSON    PTCLDY    74  49  41 CALM      30.03R
LIMON          FAIR      69  54  58 CALM      30.00R
MONUMENT HILL  FAIR      61  48  63 NW7       30.15R
CANON CITY     CLOUDY    79  52  38 E9        30.01R
WALSENBURG     MOCLDY    73  46  38 W5        30.11R
TRINIDAD       FAIR      75  46  35 CALM      30.07R
$$

COZ042>045-048>051-090-091-230400-
...NORTHEAST COLORADO...

CITY           SKY/WX    TMP DP  RH WIND       PRES   REMARKS
GREELEY ARPT   FAIR      71  54  54 E8        29.98R
AKRON          FAIR      70  53  54 NE15      29.96R
BURLINGTON     FAIR      72  57  59 NE13      29.90R
WRAY           FAIR      72  54  53 NE16G25   29.90R
YUMA           FAIR      70  54  56 NE17G23   29.93R
STERLING       FAIR      72  55  56 NE7       29.93R
HOLYOKE        NOT AVBL
FORT MORGAN    FAIR      70  53  54 NE8       29.97R
$$

COZ086-089-092>099-230400-
...SOUTHEAST COLORADO...

CITY           SKY/WX    TMP DP  RH WIND       PRES   REMARKS
PUEBLO         FAIR      78  51  38 SE7       29.96R
LA JUNTA       FAIR      76  50  40 E6        29.91R
LAMAR          FAIR      79  48  33 N6        29.87R
SPRINGFIELD      N/A     69  54  58 NE9       29.92R
$$



USA.gov is the U.S. government's official web portal to all federal, state and local government web resources and services.